Location: Zagreb
(45.8000°N, 16.0000°E)
Time: 09:21:31
(UTC+02:00)

X-37B - Pass Details

Date: 04 July 2022
Orbit: 328 x 343 km, 45.0° (Epoch: 12 August)

Event Time Altitude Azimuth Distance (km) Brightness Sun altitude
Rises 22:21:39 0° 275° (W) 2,090 5.0 -12.5°
Reaches altitude 10° 22:23:39 10° 272° (W) 1,256 3.7 -12.7°
Maximum altitude 22:26:26 65° 190° (S) 368 0.2 -13.0°
Enters shadow 22:27:49 26° 114° (ESE) 699 1.4 -13.1°
